Weather History for Gustavus, AK

Change the Weather History Date:

Tuesday, January 3, 2012

  Actual Average Record
Temperature  
Mean Temperature 28 °F -  
Max Temperature 30 °F 30 °F 48 °F (2001)
Min Temperature 26 °F 21 °F -11 °F (1997)
Degree Days  
Heating Degree Days 37    
Moisture  
Dew Point 26 °F    
Average Humidity 86    
Maximum Humidity 93    
Minimum Humidity 80    
Precipitation  
Precipitation 0.00 in - - ()
Sea Level Pressure  
Sea Level Pressure 29.36 in    
Wind  
Wind Speed 4 mph (NNW)    
Max Wind Speed 12 mph    
Max Gust Speed -    
Visibility 8 miles    
Events      
Averages and records for this station are not official NWS values.
T = Trace of Precipitation, MM = Missing Value Source: NWS Daily Summary

Daily Weather History Graph

Daily Weather History Graph

Search for Another Location

Airport:

Trip Planner

Search our weather history database for the weather conditions in past years. The results will help you decide how hot, cold, wet, or windy it might be!

Date:

Astronomy

Jan. 03, 2012 Rise Set
Actual Time 8:50 AM AKST 3:24 PM AKST
Civil Twilight 7:58 AM AKST 4:15 PM AKST
Nautical Twilight 7:06 AM AKST 5:08 PM AKST
Astronomical Twilight 6:17 AM AKST 5:57 PM AKST
Moon 11:36 AM AKST (1/3) 3:24 AM AKST (1/3)
Length of Visible Light 8h 17m
Length of Day
6h 33m
Waxing Gibbous, 74% of the Moon is Illuminated
Jan 3
Waxing Gibbous
Jan 8
Full
Jan 16
Last Quarter
Jan 22
New
Jan 30
First Quarter

Hourly Weather History & Observations

Time (AKST) Temp. Windchill Dew Point Humidity Pressure Visibility Wind Dir Wind Speed Gust Speed Precip Events Conditions
12:16 AM 30.2 °F 25.4 °F 26.6 °F 86% 29.64 in 10.0 mi NNW 4.6 mph - N/A   Scattered Clouds
12:36 AM 28.4 °F 23.3 °F 26.6 °F 93% 29.63 in 10.0 mi NNW 4.6 mph - N/A   Mostly Cloudy
12:56 AM 28.4 °F 23.3 °F 24.8 °F 86% 29.63 in 10.0 mi NW 4.6 mph - N/A   Partly Cloudy
1:16 AM 30.2 °F 24.3 °F 24.8 °F 80% 29.64 in 10.0 mi NNW 5.8 mph - N/A   Clear
1:36 AM 30.2 °F 24.3 °F 24.8 °F 80% 29.63 in 10.0 mi NW 5.8 mph - N/A   Clear
1:56 AM 30.2 °F 24.3 °F 24.8 °F 80% 29.62 in 10.0 mi NW 5.8 mph - N/A   Clear
2:16 AM 28.4 °F 23.3 °F 24.8 °F 86% 29.61 in 10.0 mi North 4.6 mph - N/A   Clear
2:36 AM 28.4 °F 21.2 °F 24.8 °F 86% 29.60 in 10.0 mi NNW 6.9 mph - N/A   Clear
2:56 AM 30.2 °F 21.3 °F 26.6 °F 86% 29.59 in 10.0 mi NNW 10.4 mph - N/A   Clear
3:16 AM 30.2 °F 21.9 °F 26.6 °F 86% 29.58 in 10.0 mi NNW 9.2 mph - N/A   Mostly Cloudy
3:36 AM 30.2 °F 20.8 °F 26.6 °F 86% 29.56 in 10.0 mi NNW 11.5 mph - N/A   Overcast
3:56 AM 30.2 °F 21.9 °F 26.6 °F 86% 29.55 in 10.0 mi NNW 9.2 mph - N/A   Scattered Clouds
4:16 AM 28.4 °F 21.2 °F 26.6 °F 93% 29.54 in 10.0 mi NNW 6.9 mph - N/A   Mostly Cloudy
4:36 AM 28.4 °F 22.2 °F 24.8 °F 86% 29.53 in 10.0 mi NW 5.8 mph - N/A   Overcast
5:16 AM 28.4 °F 20.4 °F 24.8 °F 86% 29.50 in 10.0 mi NNW 8.1 mph - N/A   Overcast
5:36 AM 26.6 °F 19.1 °F 24.8 °F 93% 29.49 in 10.0 mi NNW 6.9 mph - N/A   Partly Cloudy
5:56 AM 26.6 °F 19.1 °F 24.8 °F 93% 29.48 in 10.0 mi NNW 6.9 mph - N/A   Clear
6:16 AM 26.6 °F 20.0 °F 24.8 °F 93% 29.46 in 10.0 mi NNW 5.8 mph - N/A   Mostly Cloudy
6:36 AM 26.6 °F 20.0 °F 24.8 °F 93% 29.44 in 10.0 mi NNW 5.8 mph - N/A   Overcast
6:56 AM 26.6 °F 18.2 °F 24.8 °F 93% 29.43 in 10.0 mi NNW 8.1 mph - N/A   Overcast
7:16 AM 26.6 °F 18.2 °F 24.8 °F 93% 29.41 in 10.0 mi NNW 8.1 mph - N/A   Overcast
7:36 AM 26.6 °F 18.2 °F 24.8 °F 93% 29.41 in 10.0 mi NNW 8.1 mph - N/A   Overcast
7:56 AM 28.4 °F 22.2 °F 24.8 °F 86% 29.40 in 10.0 mi NNW 5.8 mph - N/A   Overcast
8:16 AM 28.4 °F - 24.8 °F 86% 29.39 in 10.0 mi Calm Calm - N/A   Overcast
8:36 AM 28.4 °F - 24.8 °F 86% 29.38 in 10.0 mi Calm Calm - N/A   Overcast
8:56 AM 28.4 °F 24.6 °F 24.8 °F 86% 29.35 in 10.0 mi North 3.5 mph - N/A   Overcast
9:16 AM 28.4 °F 23.3 °F 24.8 °F 86% 29.33 in 10.0 mi NW 4.6 mph - N/A   Overcast
9:36 AM 30.2 °F 26.7 °F 24.8 °F 80% 29.31 in 10.0 mi NNE 3.5 mph - N/A   Overcast
9:56 AM 28.4 °F 24.6 °F 24.8 °F 86% 29.28 in 10.0 mi North 3.5 mph - N/A   Overcast
10:16 AM 30.2 °F 26.7 °F 24.8 °F 80% 29.27 in 10.0 mi NE 3.5 mph - N/A   Overcast
10:36 AM 30.2 °F 26.7 °F 24.8 °F 80% 29.26 in 10.0 mi NE 3.5 mph - N/A   Overcast
10:56 AM 30.2 °F 26.7 °F 24.8 °F 80% 29.24 in 10.0 mi ENE 3.5 mph - N/A   Overcast
11:16 AM 30.2 °F 26.7 °F 24.8 °F 80% 29.23 in 10.0 mi East 3.5 mph - N/A   Overcast
11:36 AM 30.2 °F - 24.8 °F 80% 29.22 in 10.0 mi Calm Calm - N/A   Overcast
11:56 AM 30.2 °F - 24.8 °F 80% 29.20 in 10.0 mi Calm Calm - N/A   Overcast
12:16 PM 30.2 °F - 24.8 °F 80% 29.19 in 10.0 mi Calm Calm - N/A   Overcast
12:36 PM 30.2 °F - 24.8 °F 80% 29.19 in 10.0 mi Calm Calm - N/A   Overcast
12:56 PM 30.2 °F - 26.6 °F 86% 29.19 in 2.5 mi Calm Calm - N/A   Overcast
1:16 PM 30.2 °F - 26.6 °F 86% 29.19 in 0.5 mi Calm Calm - N/A   Overcast
1:36 PM 30.2 °F - 26.6 °F 86% 29.19 in 0.2 mi Calm Calm - N/A   Overcast
1:56 PM 30.2 °F - 26.6 °F 86% 29.17 in 0.2 mi Calm Calm - N/A   Overcast
2:16 PM 30.2 °F - 26.6 °F 86% 29.17 in 0.8 mi Calm Calm - N/A   Overcast
2:36 PM 30.2 °F - 26.6 °F 86% 29.17 in 1.0 mi Calm Calm - N/A   Overcast
2:56 PM 30.2 °F - 26.6 °F 86% 29.18 in 2.5 mi Calm Calm - N/A   Overcast
3:16 PM 30.2 °F - 26.6 °F 86% 29.18 in 1.5 mi Calm Calm - N/A   Overcast
3:36 PM 30.2 °F - 26.6 °F 86% 29.18 in 1.5 mi Calm Calm - N/A   Overcast
3:56 PM 30.2 °F - 26.6 °F 86% 29.19 in 3.0 mi Calm Calm - N/A   Overcast
4:36 PM 30.2 °F - 26.6 °F 86% 29.18 in 1.5 mi Calm Calm - N/A   Overcast
4:56 PM 30.2 °F - 26.6 °F 86% 29.19 in 5.0 mi Calm Calm - N/A   Overcast
5:16 PM 30.2 °F - 26.6 °F 86% 29.19 in 2.0 mi Calm Calm - N/A   Overcast
5:36 PM 30.2 °F - 28.4 °F 93% 29.19 in 1.0 mi Calm Calm - N/A   Overcast
5:56 PM 30.2 °F - 28.4 °F 93% 29.19 in 1.8 mi Calm Calm - N/A   Overcast
6:16 PM 30.2 °F - 28.4 °F 93% 29.19 in 1.2 mi Calm Calm - N/A   Overcast
6:36 PM 30.2 °F - 28.4 °F 93% 29.19 in 1.2 mi Calm Calm - N/A   Overcast
6:56 PM 30.2 °F - 28.4 °F 93% 29.19 in 1.2 mi Calm Calm - N/A   Overcast
7:16 PM 30.2 °F - 28.4 °F 93% 29.19 in 1.5 mi Calm Calm - N/A   Overcast
7:36 PM 30.2 °F - 28.4 °F 93% 29.20 in 2.0 mi Calm Calm - N/A   Overcast
7:56 PM 30.2 °F - 28.4 °F 93% 29.21 in 1.2 mi Calm Calm - N/A   Overcast
8:16 PM 30.2 °F - 28.4 °F 93% 29.20 in 3.0 mi Calm Calm - N/A   Overcast
8:36 PM 30.2 °F - 28.4 °F 93% 29.20 in 4.0 mi Calm Calm - N/A   Mostly Cloudy
8:56 PM 30.2 °F - 28.4 °F 93% 29.19 in 5.0 mi Calm Calm - N/A   Overcast
9:16 PM 32.0 °F - 30.2 °F 93% 29.19 in 10.0 mi Calm Calm - N/A   Overcast
9:36 PM 33.8 °F - 30.2 °F 87% 29.19 in 6.0 mi Calm Calm - N/A   Overcast
9:56 PM 33.8 °F - 30.2 °F 87% 29.18 in 5.0 mi Calm Calm - N/A   Overcast
10:16 PM 33.8 °F - 30.2 °F 87% 29.17 in 10.0 mi Calm Calm - N/A   Overcast
10:36 PM 33.8 °F - 30.2 °F 87% 29.17 in 10.0 mi Calm Calm - N/A   Mostly Cloudy
10:56 PM 33.8 °F - 30.2 °F 87% 29.16 in 10.0 mi Calm Calm - N/A   Overcast
11:16 PM 33.8 °F - 30.2 °F 87% 29.15 in 10.0 mi Calm Calm - N/A   Overcast
11:36 PM 33.8 °F 27.0 °F 30.2 °F 87% 29.14 in 10.0 mi NNW 8.1 mph - N/A   Mostly Cloudy
11:56 PM 33.8 °F 27.7 °F 30.2 °F 87% 29.13 in 10.0 mi NW 6.9 mph - N/A   Mostly Cloudy